This is the latest recevied weather packets stored in our database for station/object W8XLR-2. If no packets are shown the sender has not sent any weather packets the latest 10 day(s).
| Time | Temp. | Humidity | Pressure | Rain* | Wind** | Luminosity | Snow |
|---|---|---|---|---|---|---|---|
| 1777634210 | 5.56° C | 83% | 1015.3 hPa | 0 mm | - | - | - |
| 1777633611 | 6.11° C | 82% | 1015.1 hPa | 0 mm | - | - | - |
| 1777633011 | 5.56° C | 83% | 1015.2 hPa | 0 mm | - | - | - |
| 1777632415 | 5.56° C | 83% | 1015.2 hPa | 0 mm | - | - | - |
| 1777631809 | 5.56° C | 80% | 1015.3 hPa | 0 mm | - | - | - |
| 1777631260 | 5.56° C | 82% | 1015.3 hPa | 0 mm | - | - | - |
| 1777631211 | 5.56° C | 82% | 1015.3 hPa | 0 mm | - | - | - |
| 1777630613 | 5.56° C | 82% | 1015.3 hPa | 0 mm | - | - | - |
| 1777630010 | 5.56° C | 83% | 1015.4 hPa | 0 mm | - | - | - |
| 1777629408 | 5.56° C | 84% | 1015.5 hPa | 0 mm | - | - | - |
| 1777628868 | 5.56° C | 84% | 1015.5 hPa | 0 mm | - | - | - |
| 1777628808 | 5.56° C | 84% | 1015.5 hPa | 0 mm | - | - | - |
| 1777628209 | 5.56° C | 83% | 1015.5 hPa | 0 mm | - | - | - |
| 1777627610 | 5.56° C | 82% | 1015.7 hPa | 0 mm | - | - | - |
| 1777627086 | 5.56° C | 82% | 1015.7 hPa | 0 mm | - | - | - |
| 1777627008 | 5.56° C | 82% | 1015.7 hPa | 0 mm | - | - | - |
| 1777626451 | 5.56° C | 80% | 1015.5 hPa | 0 mm | - | - | - |
| 1777626409 | 5.56° C | 80% | 1015.5 hPa | 0 mm | - | - | - |
| 1777625809 | 6.11° C | 79% | 1015.4 hPa | 0 mm | - | - | - |
| 1777625310 | 6.11° C | 79% | 1015.4 hPa | 0 mm | - | - | - |
| 1777625210 | 6.11° C | 79% | 1015.4 hPa | 0 mm | - | - | - |
| 1777624616 | 6.11° C | 79% | 1015.3 hPa | 0 mm | - | - | - |
| 1777624008 | 6.11° C | 78% | 1015.7 hPa | 0 mm | - | - | - |
| 1777623460 | 6.11° C | 78% | 1015.7 hPa | 0 mm | - | - | - |
| 1777623413 | 6.11° C | 78% | 1015.7 hPa | 0 mm | - | - | - |
* Rain latest hour (hover to see other rain measurements)
** Current wind speed in m/s (hover to see current wind gust speed)